Time,TemperatureF,DewpointF,PressureIn,WindDirection,WindDirectionDegrees,WindSpeedMPH,WindSpeedGustMPH,Humidity,HourlyPrecipIn,Conditions,Clouds,dailyrainin,SolarRadiationWatts/m^2,SoftwareType,DateUTC
2013-09-27 00:00:00,58.0,55.7,29.98,NE,55,0.0,0.0,92,0.00,,---,0.00,0.00,VWS V14.01,2013-09-27 04:00:00,
2013-09-27 00:01:00,58.1,55.5,29.98,NE,55,0.0,0.0,91,0.00,,---,0.02,0.00,VWS V14.01,2013-09-27 04:01:00,
2013-09-27 00:02:00,58.1,55.5,29.98,NE,55,0.0,0.0,91,0.00,,---,0.02,0.00,VWS V14.01,2013-09-27 04:02:00,
2013-09-27 00:03:00,58.1,55.5,29.98,NE,55,0.0,0.0,91,0.00,,---,0.02,0.00,VWS V14.01,2013-09-27 04:03:00,
2013-09-27 00:04:00,58.1,55.5,29.98,NE,55,0.0,0.0,91,0.00,,---,0.02,0.00,VWS V14.01,2013-09-27 04:04:00,
2013-09-27 00:09:00,58.0,55.4,29.98,NE,55,0.0,0.0,91,0.00,,---,0.00,0.00,VWS V14.01,2013-09-27 04:09:00,
2013-09-27 00:10:00,57.9,55.3,29.98,NE,55,0.0,0.0,91,0.00,,---,0.00,0.00,VWS V14.01,2013-09-27 04:10:00,
2013-09-27 00:14:00,58.0,55.4,29.98,NE,55,0.0,0.0,91,0.00,,---,0.00,0.00,VWS V14.01,2013-09-27 04:14:00,
2013-09-27 00:19:00,57.9,55.3,29.98,NE,55,0.0,0.0,91,0.00,,---,0.00,0.00,VWS V14.01,2013-09-27 04:19:00,
2013-09-27 00:20:00,57.8,55.5,29.98,NE,55,0.0,0.0,92,0.00,,---,0.00,0.00,VWS V14.01,2013-09-27 04:20:00,
2013-09-27 00:24:00,57.9,55.6,29.98,NE,55,0.0,0.0,92,0.00,,---,0.00,0.00,VWS V14.01,2013-09-27 04:24:00,
2013-09-27 00:30:00,57.8,55.5,29.99,NE,55,0.0,0.0,92,0.00,,---,0.00,0.00,VWS V14.01,2013-09-27 04:30:00,
2013-09-27 00:35:00,57.8,55.8,29.98,NE,55,0.0,0.0,93,0.00,,---,0.00,0.00,VWS V14.01,2013-09-27 04:35:00,
2013-09-27 00:40:00,57.7,55.7,29.98,NE,55,0.0,0.0,93,0.00,,---,0.00,0.00,VWS V14.01,2013-09-27 04:40:00,
2013-09-27 00:45:00,57.7,55.7,29.98,NE,55,0.0,0.0,93,0.00,,---,0.00,0.00,VWS V14.01,2013-09-27 04:45:00,
2013-09-27 00:50:00,57.5,55.2,29.98,NE,55,0.0,0.0,92,0.00,,---,0.00,0.00,VWS V14.01,2013-09-27 04:50:00,
2013-09-27 00:55:00,57.4,55.4,29.99,NE,55,0.0,0.0,93,0.00,,---,0.00,0.00,VWS V14.01,2013-09-27 04:55:00,
2013-09-27 01:00:00,57.4,55.4,29.99,NE,55,0.0,0.0,93,0.00,,---,0.00,0.00,VWS V14.01,2013-09-27 05:00:00,
2013-09-27 01:06:00,57.3,55.3,29.99,NE,55,0.0,0.0,93,0.00,,---,0.00,0.00,VWS V14.01,2013-09-27 05:06:00,
2013-09-27 01:10:00,57.0,55.0,29.99,NE,55,0.0,0.0,93,0.00,,---,0.00,0.00,VWS V14.01,2013-09-27 05:10:00,
2013-09-27 01:11:00,57.1,55.1,29.98,NE,55,0.0,0.0,93,0.00,,---,0.00,0.00,VWS V14.01,2013-09-27 05:11:00,
2013-09-27 01:16:00,57.0,55.0,29.98,NE,55,0.0,0.0,93,0.00,,---,0.00,0.00,VWS V14.01,2013-09-27 05:16:00,
2013-09-27 01:20:00,56.8,55.1,29.99,NE,55,0.0,0.0,94,0.00,,---,0.00,0.00,VWS V14.01,2013-09-27 05:20:00,
2013-09-27 01:21:00,56.9,54.9,29.98,NE,55,0.0,0.0,93,0.00,,---,0.00,0.00,VWS V14.01,2013-09-27 05:21:00,
2013-09-27 01:26:00,56.8,55.1,29.99,NE,55,0.0,0.0,94,0.00,,---,0.00,0.00,VWS V14.01,2013-09-27 05:26:00,
2013-09-27 01:30:00,56.6,54.9,29.99,NE,55,0.0,0.0,94,0.00,,---,0.00,0.00,VWS V14.01,2013-09-27 05:30:00,
2013-09-27 01:31:00,56.7,55.0,29.99,NE,55,0.0,0.0,94,0.00,,---,0.00,0.00,VWS V14.01,2013-09-27 05:31:00,
2013-09-27 01:36:00,56.7,55.0,29.99,NE,55,0.0,0.0,94,0.00,,---,0.00,0.00,VWS V14.01,2013-09-27 05:36:00,
2013-09-27 01:40:00,56.5,54.8,29.98,NE,55,0.0,0.0,94,0.00,,---,0.00,0.00,VWS V14.01,2013-09-27 05:40:00,
2013-09-27 01:41:00,56.6,54.9,29.98,NE,55,0.0,0.0,94,0.00,,---,0.00,0.00,VWS V14.01,2013-09-27 05:41:00,
2013-09-27 01:46:00,56.5,54.8,29.98,NE,55,0.0,0.0,94,0.00,,---,0.00,0.00,VWS V14.01,2013-09-27 05:46:00,
2013-09-27 01:50:00,56.6,55.2,29.98,NE,55,0.0,0.0,95,0.00,,---,0.00,0.00,VWS V14.01,2013-09-27 05:50:00,
2013-09-27 01:52:00,56.5,54.8,29.98,NE,55,0.0,0.0,94,0.00,,---,0.00,0.00,VWS V14.01,2013-09-27 05:52:00,
2013-09-27 01:57:00,56.6,55.2,29.98,NE,55,0.0,0.0,95,0.00,,---,0.00,0.00,VWS V14.01,2013-09-27 05:57:00,
2013-09-27 02:00:00,56.8,55.4,29.98,NE,55,0.0,0.0,95,0.00,,---,0.00,0.00,VWS V14.01,2013-09-27 06:00:00,
2013-09-27 02:02:00,56.7,55.3,29.98,NE,55,0.0,0.0,95,0.00,,---,0.00,0.00,VWS V14.01,2013-09-27 06:02:00,
2013-09-27 02:07:00,56.8,55.4,29.98,NE,55,0.0,0.0,95,0.00,,---,0.00,0.00,VWS V14.01,2013-09-27 06:07:00,
2013-09-27 02:10:00,56.8,55.4,29.98,NE,55,0.0,0.0,95,0.00,,---,0.00,0.00,VWS V14.01,2013-09-27 06:10:00,
2013-09-27 02:12:00,56.8,55.4,29.98,NE,55,0.0,0.0,95,0.00,,---,0.00,0.00,VWS V14.01,2013-09-27 06:12:00,
2013-09-27 02:17:00,56.9,55.5,29.98,NE,55,0.0,0.0,95,0.00,,---,0.00,0.00,VWS V14.01,2013-09-27 06:17:00,
2013-09-27 02:20:00,56.8,55.4,29.98,NE,55,0.0,0.0,95,0.00,,---,0.00,0.00,VWS V14.01,2013-09-27 06:20:00,
2013-09-27 02:22:00,56.8,55.4,29.98,NE,55,0.0,0.0,95,0.00,,---,0.00,0.00,VWS V14.01,2013-09-27 06:22:00,
2013-09-27 02:27:00,56.8,55.4,29.98,NE,55,0.0,0.0,95,0.00,,---,0.00,0.00,VWS V14.01,2013-09-27 06:27:00,
2013-09-27 02:30:00,56.6,54.9,29.98,NE,55,0.0,0.0,94,0.00,,---,0.00,0.00,VWS V14.01,2013-09-27 06:30:00,
2013-09-27 02:33:00,56.7,55.3,29.98,NE,55,0.0,0.0,95,0.00,,---,0.00,0.00,VWS V14.01,2013-09-27 06:33:00,
2013-09-27 02:38:00,56.6,54.9,29.98,NE,55,0.0,0.0,94,0.00,,---,0.00,0.00,VWS V14.01,2013-09-27 06:38:00,
2013-09-27 02:40:00,56.3,54.6,29.98,NE,55,0.0,0.0,94,0.00,,---,0.00,0.00,VWS V14.01,2013-09-27 06:40:00,
2013-09-27 02:43:00,56.4,54.7,29.98,NE,55,0.0,0.0,94,0.00,,---,0.00,0.00,VWS V14.01,2013-09-27 06:43:00,
2013-09-27 02:48:00,56.3,54.6,29.98,NE,55,0.0,0.0,94,0.00,,---,0.00,0.00,VWS V14.01,2013-09-27 06:48:00,
2013-09-27 02:50:00,55.9,54.2,29.99,NE,55,0.0,0.0,94,0.00,,---,0.00,0.00,VWS V14.01,2013-09-27 06:50:00,
2013-09-27 02:53:00,56.1,54.4,29.98,NE,55,0.0,0.0,94,0.00,,---,0.00,0.00,VWS V14.01,2013-09-27 06:53:00,
2013-09-27 02:58:00,55.9,54.2,29.99,NE,55,0.0,0.0,94,0.00,,---,0.00,0.00,VWS V14.01,2013-09-27 06:58:00,
2013-09-27 03:00:00,55.7,54.3,29.98,NE,55,0.0,0.0,95,0.00,,---,0.00,0.00,VWS V14.01,2013-09-27 07:00:00,
2013-09-27 03:03:00,55.8,54.1,29.98,NE,55,0.0,0.0,94,0.00,,---,0.00,0.00,VWS V14.01,2013-09-27 07:03:00,
2013-09-27 03:08:00,55.7,54.3,29.98,NE,55,0.0,0.0,95,0.00,,---,0.00,0.00,VWS V14.01,2013-09-27 07:08:00,
2013-09-27 03:10:00,55.6,54.2,29.99,NE,55,0.0,0.0,95,0.00,,---,0.00,0.00,VWS V14.01,2013-09-27 07:10:00,
2013-09-27 03:13:00,55.6,54.2,29.98,NE,55,0.0,0.0,95,0.00,,---,0.00,0.00,VWS V14.01,2013-09-27 07:13:00,
2013-09-27 03:18:00,55.7,54.3,29.99,NE,55,0.0,0.0,95,0.00,,---,0.00,0.00,VWS V14.01,2013-09-27 07:18:00,
2013-09-27 03:20:00,55.5,54.1,29.98,NE,55,0.0,0.0,95,0.00,,---,0.00,0.00,VWS V14.01,2013-09-27 07:20:00,
2013-09-27 03:24:00,55.6,54.2,29.98,NE,55,0.0,0.0,95,0.00,,---,0.00,0.00,VWS V14.01,2013-09-27 07:24:00,
2013-09-27 03:29:00,55.5,54.1,29.98,NE,55,0.0,0.0,95,0.00,,---,0.00,0.00,VWS V14.01,2013-09-27 07:29:00,
2013-09-27 03:30:00,55.2,53.8,29.98,NE,55,0.0,0.0,95,0.00,,---,0.00,0.00,VWS V14.01,2013-09-27 07:30:00,
2013-09-27 03:34:00,55.3,53.9,29.98,NE,55,0.0,0.0,95,0.00,,---,0.00,0.00,VWS V14.01,2013-09-27 07:34:00,
2013-09-27 03:39:00,55.1,53.7,29.98,NE,55,0.0,0.0,95,0.00,,---,0.00,0.00,VWS V14.01,2013-09-27 07:39:00,
2013-09-27 03:40:00,54.8,53.4,29.98,NE,55,0.0,0.0,95,0.00,,---,0.00,0.00,VWS V14.01,2013-09-27 07:40:00,
2013-09-27 03:44:00,55.0,53.6,29.98,NE,55,0.0,0.0,95,0.00,,---,0.00,0.00,VWS V14.01,2013-09-27 07:44:00,
2013-09-27 03:49:00,54.8,53.4,29.98,NE,55,0.0,0.0,95,0.00,,---,0.00,0.00,VWS V14.01,2013-09-27 07:49:00,
2013-09-27 03:50:00,54.6,53.2,29.99,NE,55,0.0,0.0,95,0.00,,---,0.00,0.00,VWS V14.01,2013-09-27 07:50:00,
2013-09-27 03:54:00,54.6,53.2,29.98,NE,55,0.0,0.0,95,0.00,,---,0.00,0.00,VWS V14.01,2013-09-27 07:54:00,
2013-09-27 03:59:00,54.6,53.2,29.99,NE,55,0.0,0.0,95,0.00,,---,0.00,0.00,VWS V14.01,2013-09-27 07:59:00,
2013-09-27 04:00:00,54.6,53.5,29.99,NE,55,0.0,0.0,96,0.00,,---,0.00,0.00,VWS V14.01,2013-09-27 08:00:00,
2013-09-27 04:04:00,54.6,53.5,29.99,NE,55,0.0,0.0,96,0.00,,---,0.00,0.00,VWS V14.01,2013-09-27 08:04:00,
2013-09-27 04:09:00,54.7,53.6,29.99,NE,55,0.0,0.0,96,0.00,,---,0.00,0.00,VWS V14.01,2013-09-27 08:09:00,
2013-09-27 04:10:00,54.8,53.7,29.99,NE,55,0.0,0.0,96,0.00,,---,0.00,0.00,VWS V14.01,2013-09-27 08:10:00,
2013-09-27 04:14:00,54.8,53.7,29.99,NE,55,0.0,0.0,96,0.00,,---,0.00,0.00,VWS V14.01,2013-09-27 08:14:00,
2013-09-27 04:19:00,54.7,53.6,29.99,NE,55,0.0,0.0,96,0.00,,---,0.00,0.00,VWS V14.01,2013-09-27 08:19:00,
2013-09-27 04:20:00,54.6,53.5,29.99,NE,55,0.0,0.0,96,0.00,,---,0.00,0.00,VWS V14.01,2013-09-27 08:20:00,
2013-09-27 04:25:00,54.6,53.5,29.99,NE,55,0.0,0.0,96,0.00,,---,0.00,0.00,VWS V14.01,2013-09-27 08:25:00,
2013-09-27 04:30:00,54.5,53.4,29.99,NE,55,0.0,0.0,96,0.00,,---,0.00,0.00,VWS V14.01,2013-09-27 08:30:00,
2013-09-27 04:35:00,54.4,53.3,29.99,NE,55,0.0,0.0,96,0.00,,---,0.00,0.00,VWS V14.01,2013-09-27 08:35:00,
2013-09-27 04:40:00,54.2,53.1,29.99,NE,55,0.0,0.0,96,0.00,,---,0.00,0.00,VWS V14.01,2013-09-27 08:40:00,
2013-09-27 04:45:00,54.1,53.0,30.00,NE,55,0.0,0.0,96,0.00,,---,0.00,0.00,VWS V14.01,2013-09-27 08:45:00,
2013-09-27 04:50:00,54.0,52.9,29.99,NE,55,0.0,0.0,96,0.00,,---,0.00,0.00,VWS V14.01,2013-09-27 08:50:00,
2013-09-27 04:55:00,53.9,52.8,30.00,NE,55,0.0,0.0,96,0.00,,---,0.00,0.00,VWS V14.01,2013-09-27 08:55:00,
2013-09-27 05:00:00,53.7,52.6,29.99,NE,55,0.0,0.0,96,0.00,,---,0.00,0.00,VWS V14.01,2013-09-27 09:00:00,
2013-09-27 05:05:00,53.5,52.4,30.00,NE,55,0.0,0.0,96,0.00,,---,0.00,0.00,VWS V14.01,2013-09-27 09:05:00,
2013-09-27 05:10:00,53.4,52.3,30.00,NE,55,0.0,0.0,96,0.00,,---,0.00,0.00,VWS V14.01,2013-09-27 09:10:00,
2013-09-27 05:16:00,53.2,51.8,30.00,NE,55,0.0,0.0,95,0.00,,---,0.00,0.00,VWS V14.01,2013-09-27 09:16:00,
2013-09-27 05:20:00,53.1,52.0,30.00,NE,55,0.0,0.0,96,0.00,,---,0.00,0.00,VWS V14.01,2013-09-27 09:20:00,
2013-09-27 05:21:00,53.1,52.0,30.00,NE,55,0.0,0.0,96,0.00,,---,0.00,0.00,VWS V14.01,2013-09-27 09:21:00,
2013-09-27 05:26:00,53.1,52.0,30.00,NE,55,0.0,0.0,96,0.00,,---,0.00,0.00,VWS V14.01,2013-09-27 09:26:00,
2013-09-27 05:30:00,53.4,52.6,30.00,NE,55,0.0,0.0,97,0.00,,---,0.00,0.00,VWS V14.01,2013-09-27 09:30:00,
2013-09-27 05:31:00,53.2,52.1,30.00,NE,55,0.0,0.0,96,0.00,,---,0.00,0.00,VWS V14.01,2013-09-27 09:31:00,
2013-09-27 05:36:00,53.3,52.5,30.00,NE,55,0.0,0.0,97,0.00,,---,0.00,0.00,VWS V14.01,2013-09-27 09:36:00,
2013-09-27 05:40:00,53.3,52.5,30.01,NE,55,0.0,0.0,97,0.00,,---,0.00,0.00,VWS V14.01,2013-09-27 09:40:00,
2013-09-27 05:41:00,53.4,52.6,30.00,NE,55,0.0,0.0,97,0.00,,---,0.00,0.00,VWS V14.01,2013-09-27 09:41:00,
2013-09-27 05:46:00,53.3,52.5,30.01,NE,55,0.0,0.0,97,0.00,,---,0.00,0.00,VWS V14.01,2013-09-27 09:46:00,
2013-09-27 05:50:00,53.1,52.3,30.01,NE,55,0.0,0.0,97,0.00,,---,0.00,0.00,VWS V14.01,2013-09-27 09:50:00,
2013-09-27 05:51:00,53.2,52.4,30.01,NE,55,0.0,0.0,97,0.00,,---,0.00,0.00,VWS V14.01,2013-09-27 09:51:00,
2013-09-27 05:56:00,53.1,52.3,30.01,NE,55,0.0,0.0,97,0.00,,---,0.00,0.00,VWS V14.01,2013-09-27 09:56:00,
2013-09-27 06:00:00,53.2,52.4,30.01,NE,55,0.0,0.0,97,0.00,,---,0.00,0.00,VWS V14.01,2013-09-27 10:00:00,
2013-09-27 06:02:00,53.1,52.3,30.01,NE,55,0.0,0.0,97,0.00,,---,0.00,0.00,VWS V14.01,2013-09-27 10:02:00,
2013-09-27 06:07:00,53.2,52.4,30.01,NE,55,0.0,0.0,97,0.00,,---,0.00,0.00,VWS V14.01,2013-09-27 10:07:00,
2013-09-27 06:10:00,53.5,52.7,30.02,NE,55,0.0,0.0,97,0.00,,---,0.00,0.00,VWS V14.01,2013-09-27 10:10:00,
2013-09-27 06:12:00,53.3,52.5,30.01,NE,55,0.0,0.0,97,0.00,,---,0.00,0.00,VWS V14.01,2013-09-27 10:12:00,
2013-09-27 06:17:00,53.5,52.7,30.02,NE,55,0.0,0.0,97,0.00,,---,0.00,0.00,VWS V14.01,2013-09-27 10:17:00,
2013-09-27 06:20:00,53.6,52.8,30.02,NE,55,0.0,0.0,97,0.00,,---,0.00,0.00,VWS V14.01,2013-09-27 10:20:00,
2013-09-27 06:22:00,53.5,52.7,30.02,NE,55,0.0,0.0,97,0.00,,---,0.00,0.00,VWS V14.01,2013-09-27 10:22:00,
2013-09-27 06:27:00,53.6,52.8,30.02,NE,55,0.0,0.0,97,0.00,,---,0.00,0.00,VWS V14.01,2013-09-27 10:27:00,
2013-09-27 06:30:00,53.5,52.7,30.03,NE,55,0.0,0.0,97,0.00,,---,0.00,0.00,VWS V14.01,2013-09-27 10:30:00,
2013-09-27 06:32:00,53.5,52.7,30.02,NE,55,0.0,0.0,97,0.00,,---,0.00,0.00,VWS V14.01,2013-09-27 10:32:00,
2013-09-27 06:37:00,53.5,52.7,30.03,NE,55,0.0,0.0,97,0.00,,---,0.00,0.00,VWS V14.01,2013-09-27 10:37:00,
2013-09-27 06:40:00,53.5,52.7,30.03,NE,55,0.0,0.0,97,0.00,,---,0.00,0.00,VWS V14.01,2013-09-27 10:40:00,
2013-09-27 06:42:00,53.5,52.7,30.03,NE,55,0.0,0.0,97,0.00,,---,0.00,0.00,VWS V14.01,2013-09-27 10:42:00,
2013-09-27 06:47:00,53.5,52.7,30.03,NE,55,0.0,0.0,97,0.00,,---,0.00,0.00,VWS V14.01,2013-09-27 10:47:00,
2013-09-27 06:50:00,53.5,52.7,30.03,NE,55,0.0,0.0,97,0.00,,---,0.00,0.00,VWS V14.01,2013-09-27 10:50:00,
2013-09-27 06:52:00,53.5,52.7,30.03,NE,55,0.0,0.0,97,0.00,,---,0.00,0.00,VWS V14.01,2013-09-27 10:52:00,
2013-09-27 06:57:00,53.5,52.7,30.03,NE,55,0.0,0.0,97,0.00,,---,0.00,0.00,VWS V14.01,2013-09-27 10:57:00,
2013-09-27 07:00:00,53.5,52.7,30.03,NE,55,0.0,0.0,97,0.00,,---,0.00,0.00,VWS V14.01,2013-09-27 11:00:00,
2013-09-27 07:02:00,53.5,52.7,30.03,NE,55,0.0,0.0,97,0.00,,---,0.00,0.00,VWS V14.01,2013-09-27 11:02:00,
2013-09-27 07:08:00,53.5,52.7,30.03,NE,55,0.0,0.0,97,0.00,,---,0.00,0.00,VWS V14.01,2013-09-27 11:08:00,
2013-09-27 07:10:00,53.3,52.5,30.03,NE,55,0.0,0.0,97,0.00,,---,0.00,0.00,VWS V14.01,2013-09-27 11:10:00,
2013-09-27 07:13:00,53.4,52.6,30.03,NE,55,0.0,0.0,97,0.00,,---,0.00,0.00,VWS V14.01,2013-09-27 11:13:00,
2013-09-27 07:18:00,53.3,52.5,30.03,NE,55,0.0,0.0,97,0.00,,---,0.00,0.00,VWS V14.01,2013-09-27 11:18:00,
2013-09-27 07:20:00,53.3,52.5,30.04,NE,55,0.0,0.0,97,0.00,,---,0.00,5.00,VWS V14.01,2013-09-27 11:20:00,
2013-09-27 07:23:00,53.3,52.5,30.04,NE,55,0.0,0.0,97,0.00,,---,0.00,0.00,VWS V14.01,2013-09-27 11:23:00,
2013-09-27 07:28:00,53.3,52.5,30.04,NE,55,0.0,0.0,97,0.00,,---,0.00,5.00,VWS V14.01,2013-09-27 11:28:00,
2013-09-27 07:30:00,53.3,52.5,30.05,NE,55,0.0,0.0,97,0.00,,---,0.00,9.00,VWS V14.01,2013-09-27 11:30:00,
2013-09-27 07:33:00,53.3,52.5,30.04,NE,55,0.0,0.0,97,0.00,,---,0.00,7.00,VWS V14.01,2013-09-27 11:33:00,
2013-09-27 07:38:00,53.3,52.5,30.04,NE,55,0.0,0.0,97,0.00,,---,0.00,11.00,VWS V14.01,2013-09-27 11:38:00,
2013-09-27 07:40:00,53.2,52.4,30.05,NE,55,0.0,0.0,97,0.00,,---,0.00,12.00,VWS V14.01,2013-09-27 11:40:00,
2013-09-27 07:43:00,53.2,52.4,30.05,NE,55,0.0,0.0,97,0.00,,---,0.00,12.00,VWS V14.01,2013-09-27 11:43:00,
2013-09-27 07:48:00,53.2,52.4,30.05,NE,55,0.0,0.0,97,0.00,,---,0.00,12.00,VWS V14.01,2013-09-27 11:48:00,
2013-09-27 07:50:00,53.2,52.4,30.05,NE,55,0.0,0.0,97,0.00,,---,0.00,16.00,VWS V14.01,2013-09-27 11:50:00,
2013-09-27 07:53:00,53.2,52.4,30.05,NE,55,0.0,0.0,97,0.00,,---,0.00,14.00,VWS V14.01,2013-09-27 11:53:00,
2013-09-27 07:58:00,53.2,52.4,30.05,NE,55,0.0,0.0,97,0.00,,---,0.00,16.00,VWS V14.01,2013-09-27 11:58:00,
2013-09-27 08:00:00,53.3,52.5,30.06,NE,55,0.0,0.0,97,0.00,,---,0.00,19.00,VWS V14.01,2013-09-27 12:00:00,
2013-09-27 08:03:00,53.3,52.5,30.06,NE,55,0.0,0.0,97,0.00,,---,0.00,18.00,VWS V14.01,2013-09-27 12:03:00,
2013-09-27 08:08:00,53.3,52.5,30.06,NE,55,0.0,0.0,97,0.00,,---,0.00,19.00,VWS V14.01,2013-09-27 12:08:00,
2013-09-27 08:10:00,53.3,52.5,30.06,NE,55,0.0,0.0,97,0.00,,---,0.00,21.00,VWS V14.01,2013-09-27 12:10:00,
2013-09-27 08:13:00,53.3,52.5,30.06,NE,55,0.0,0.0,97,0.00,,---,0.00,19.00,VWS V14.01,2013-09-27 12:13:00,
2013-09-27 08:19:00,53.3,52.5,30.06,NE,55,0.0,0.0,97,0.00,,---,0.00,21.00,VWS V14.01,2013-09-27 12:19:00,
2013-09-27 08:20:00,53.3,52.5,30.06,NE,55,0.0,0.0,97,0.00,,---,0.00,23.00,VWS V14.01,2013-09-27 12:20:00,
2013-09-27 08:24:00,53.3,52.5,30.06,NE,55,0.0,0.0,97,0.00,,---,0.00,21.00,VWS V14.01,2013-09-27 12:24:00,
2013-09-27 08:29:00,53.3,52.5,30.06,NE,55,0.0,0.0,97,0.00,,---,0.00,23.00,VWS V14.01,2013-09-27 12:29:00,
2013-09-27 08:30:00,53.4,52.6,30.06,NE,55,0.0,0.0,97,0.00,,---,0.00,25.00,VWS V14.01,2013-09-27 12:30:00,
2013-09-27 08:34:00,53.3,52.5,30.07,NE,55,0.0,0.0,97,0.00,,---,0.00,23.00,VWS V14.01,2013-09-27 12:34:00,
2013-09-27 08:39:00,53.4,52.6,30.06,NE,55,0.0,0.0,97,0.00,,---,0.00,25.00,VWS V14.01,2013-09-27 12:39:00,
2013-09-27 08:40:00,53.6,53.0,30.07,NE,55,0.0,0.0,98,0.00,,---,0.00,25.00,VWS V14.01,2013-09-27 12:40:00,
2013-09-27 08:44:00,53.5,52.7,30.07,NE,55,0.0,0.0,97,0.00,,---,0.00,25.00,VWS V14.01,2013-09-27 12:44:00,
2013-09-27 08:49:00,53.6,53.0,30.07,NE,55,0.0,0.0,98,0.00,,---,0.00,26.00,VWS V14.01,2013-09-27 12:49:00,
2013-09-27 08:50:00,53.9,53.3,30.07,NE,55,0.0,0.0,98,0.00,,---,0.00,26.00,VWS V14.01,2013-09-27 12:50:00,
2013-09-27 08:54:00,53.7,53.2,30.07,NE,55,0.0,0.0,98,0.00,,---,0.00,26.00,VWS V14.01,2013-09-27 12:54:00,
2013-09-27 09:00:00,54.0,53.5,30.08,NE,56,0.0,0.0,98,0.00,,---,0.00,28.00,VWS V14.01,2013-09-27 13:00:00,
2013-09-27 09:05:00,54.3,53.8,30.08,NE,56,0.0,0.0,98,0.00,,---,0.00,30.00,VWS V14.01,2013-09-27 13:05:00,
2013-09-27 09:10:00,54.6,54.0,30.08,NE,56,0.0,0.0,98,0.00,,---,0.00,28.00,VWS V14.01,2013-09-27 13:10:00,
2013-09-27 09:15:00,54.8,54.2,30.08,NE,56,0.0,0.0,98,0.00,,---,0.00,30.00,VWS V14.01,2013-09-27 13:15:00,
2013-09-27 09:20:00,54.9,54.3,30.08,NE,56,0.0,0.0,98,0.00,,---,0.00,30.00,VWS V14.01,2013-09-27 13:20:00,
2013-09-27 09:25:00,55.1,54.5,30.08,NE,56,0.0,0.0,98,0.00,,---,0.00,32.00,VWS V14.01,2013-09-27 13:25:00,
2013-09-27 09:30:00,55.2,54.7,30.08,NE,56,0.0,0.0,98,0.00,,---,0.00,32.00,VWS V14.01,2013-09-27 13:30:00,
2013-09-27 09:35:00,55.3,54.8,30.08,NE,56,0.0,0.0,98,0.00,,---,0.00,33.00,VWS V14.01,2013-09-27 13:35:00,
2013-09-27 09:40:00,55.5,55.0,30.09,NE,56,0.0,0.0,98,0.00,,---,0.00,33.00,VWS V14.01,2013-09-27 13:40:00,
2013-09-27 09:45:00,55.7,55.2,30.09,NE,56,0.0,0.0,98,0.00,,---,0.00,35.00,VWS V14.01,2013-09-27 13:45:00,
2013-09-27 09:50:00,56.5,55.9,30.09,NE,56,0.0,0.0,98,0.00,,---,0.00,35.00,VWS V14.01,2013-09-27 13:50:00,
2013-09-27 09:51:00,55.9,55.3,30.09,NE,56,0.0,0.0,98,0.00,,---,0.00,33.00,VWS V14.01,2013-09-27 13:51:00,
2013-09-27 09:56:00,56.4,55.8,30.09,NE,56,0.0,0.0,98,0.00,,---,0.00,35.00,VWS V14.01,2013-09-27 13:56:00,
2013-09-27 10:00:00,57.1,56.5,30.09,NE,56,0.0,0.0,98,0.00,,---,0.00,47.00,VWS V14.01,2013-09-27 14:00:00,
2013-09-27 10:01:00,56.7,56.1,30.09,NE,56,0.0,0.0,98,0.00,,---,0.00,40.00,VWS V14.01,2013-09-27 14:01:00,
2013-09-27 10:06:00,57.0,56.4,30.09,NE,56,0.0,0.0,98,0.00,,---,0.00,69.00,VWS V14.01,2013-09-27 14:06:00,
2013-09-27 10:10:00,57.8,57.2,30.09,NE,56,0.0,0.0,98,0.00,,---,0.00,104.00,VWS V14.01,2013-09-27 14:10:00,
2013-09-27 10:11:00,57.4,56.8,30.09,NE,56,0.0,0.0,98,0.00,,---,0.00,58.00,VWS V14.01,2013-09-27 14:11:00,
2013-09-27 10:16:00,57.7,57.1,30.09,NE,56,0.0,0.0,98,0.00,,---,0.00,104.00,VWS V14.01,2013-09-27 14:16:00,
2013-09-27 10:20:00,59.1,58.5,30.09,NE,56,0.0,0.0,98,0.00,,---,0.00,459.00,VWS V14.01,2013-09-27 14:20:00,
2013-09-27 10:21:00,58.1,57.5,30.09,NE,56,0.0,0.0,98,0.00,,---,0.00,445.00,VWS V14.01,2013-09-27 14:21:00,
2013-09-27 10:26:00,58.9,58.3,30.09,NE,56,0.0,0.0,98,0.00,,---,0.00,455.00,VWS V14.01,2013-09-27 14:26:00,
2013-09-27 10:30:00,60.4,59.8,30.09,NE,56,0.0,0.0,98,0.00,,---,0.00,485.00,VWS V14.01,2013-09-27 14:30:00,
2013-09-27 10:31:00,59.6,59.0,30.09,NE,56,0.0,0.0,98,0.00,,---,0.00,473.00,VWS V14.01,2013-09-27 14:31:00,
2013-09-27 10:36:00,60.2,59.6,30.09,NE,56,0.0,0.0,98,0.00,,---,0.00,483.00,VWS V14.01,2013-09-27 14:36:00,
2013-09-27 10:40:00,62.4,61.2,30.09,NE,56,0.0,0.0,96,0.00,,---,0.00,522.00,VWS V14.01,2013-09-27 14:40:00,
2013-09-27 10:41:00,61.1,60.5,30.09,NE,56,0.0,0.0,98,0.00,,---,0.00,499.00,VWS V14.01,2013-09-27 14:41:00,
2013-09-27 10:47:00,62.2,61.0,30.09,NE,56,0.0,0.0,96,0.00,,---,0.00,515.00,VWS V14.01,2013-09-27 14:47:00,
2013-09-27 10:50:00,64.0,60.4,30.09,NE,56,0.0,0.0,88,0.00,,---,0.00,538.00,VWS V14.01,2013-09-27 14:50:00,
2013-09-27 10:52:00,63.1,60.7,30.09,NE,56,0.0,0.0,92,0.00,,---,0.00,497.00,VWS V14.01,2013-09-27 14:52:00,
2013-09-27 10:57:00,63.8,60.5,30.09,NE,56,0.0,0.0,89,0.00,,---,0.00,538.00,VWS V14.01,2013-09-27 14:57:00,
2013-09-27 11:00:00,65.6,61.3,30.09,NE,56,0.0,0.0,86,0.00,,---,0.00,608.00,VWS V14.01,2013-09-27 15:00:00,
2013-09-27 11:02:00,64.6,61.3,30.09,NE,56,0.0,0.0,89,0.00,,---,0.00,585.00,VWS V14.01,2013-09-27 15:02:00,
2013-09-27 11:07:00,65.5,62.2,30.09,NE,56,0.0,0.0,89,0.00,,---,0.00,605.00,VWS V14.01,2013-09-27 15:07:00,
2013-09-27 11:10:00,66.9,61.6,30.09,NE,56,0.0,0.0,83,0.00,,---,0.00,642.00,VWS V14.01,2013-09-27 15:10:00,
2013-09-27 11:12:00,66.2,60.5,30.09,NE,56,0.0,0.0,82,0.00,,---,0.00,568.00,VWS V14.01,2013-09-27 15:12:00,
2013-09-27 11:17:00,66.8,61.5,30.09,NE,56,0.0,0.0,83,0.00,,---,0.00,640.00,VWS V14.01,2013-09-27 15:17:00,
2013-09-27 11:20:00,68.2,61.5,30.09,NE,56,0.0,0.0,79,0.00,,---,0.00,664.00,VWS V14.01,2013-09-27 15:20:00,
2013-09-27 11:22:00,67.7,61.3,30.09,NE,56,0.0,0.0,80,0.00,,---,0.00,650.00,VWS V14.01,2013-09-27 15:22:00,
2013-09-27 11:27:00,68.2,61.5,30.09,NE,56,0.0,0.0,79,0.00,,---,0.00,663.00,VWS V14.01,2013-09-27 15:27:00,
2013-09-27 11:30:00,69.2,61.3,30.09,NE,56,0.0,0.0,76,0.00,,---,0.00,684.00,VWS V14.01,2013-09-27 15:30:00,
2013-09-27 11:32:00,68.6,61.8,30.09,NE,56,0.0,0.0,79,0.00,,---,0.00,673.00,VWS V14.01,2013-09-27 15:32:00,
2013-09-27 11:37:00,69.2,61.3,30.09,NE,56,0.0,0.0,76,0.00,,---,0.00,684.00,VWS V14.01,2013-09-27 15:37:00,
2013-09-27 11:40:00,70.1,62.2,30.09,NE,56,0.0,0.0,76,0.00,,---,0.00,710.00,VWS V14.01,2013-09-27 15:40:00,
2013-09-27 11:43:00,69.7,62.2,30.09,NE,56,0.0,0.0,77,0.00,,---,0.00,696.00,VWS V14.01,2013-09-27 15:43:00,
2013-09-27 11:48:00,70.1,62.2,30.09,NE,56,0.0,0.0,76,0.00,,---,0.00,710.00,VWS V14.01,2013-09-27 15:48:00,
2013-09-27 11:50:00,70.3,61.2,30.09,NE,52,0.0,0.0,73,0.00,,---,0.00,728.00,VWS V14.01,2013-09-27 15:50:00,
2013-09-27 11:53:00,70.3,62.0,30.09,NE,56,0.0,0.0,75,0.00,,---,0.00,719.00,VWS V14.01,2013-09-27 15:53:00,
2013-09-27 11:58:00,70.3,61.2,30.08,NE,52,0.0,0.0,73,0.00,,---,0.00,728.00,VWS V14.01,2013-09-27 15:58:00,
2013-09-27 12:00:00,70.4,61.3,30.08,NE,52,0.0,0.0,73,0.00,,---,0.00,744.00,VWS V14.01,2013-09-27 16:00:00,
2013-09-27 12:03:00,70.3,61.6,30.08,NE,52,0.0,0.0,74,0.00,,---,0.00,737.00,VWS V14.01,2013-09-27 16:03:00,
2013-09-27 12:08:00,70.4,61.3,30.08,NE,52,0.0,0.0,73,0.00,,---,0.00,747.00,VWS V14.01,2013-09-27 16:08:00,
2013-09-27 12:10:00,70.5,61.4,30.08,NE,52,0.0,0.0,73,0.00,,---,0.00,759.00,VWS V14.01,2013-09-27 16:10:00,
2013-09-27 12:13:00,70.4,61.3,30.08,NE,52,0.0,0.0,73,0.00,,---,0.00,754.00,VWS V14.01,2013-09-27 16:13:00,
2013-09-27 12:18:00,70.5,61.4,30.08,NE,51,0.0,0.0,73,0.00,,---,0.00,761.00,VWS V14.01,2013-09-27 16:18:00,
2013-09-27 12:20:00,71.3,61.0,30.08,NE,51,0.0,0.0,70,0.00,,---,0.00,775.00,VWS V14.01,2013-09-27 16:20:00,
2013-09-27 12:23:00,70.8,61.7,30.08,NE,51,0.0,0.0,73,0.00,,---,0.00,770.00,VWS V14.01,2013-09-27 16:23:00,
2013-09-27 12:29:00,71.4,61.5,30.08,NE,51,0.0,0.0,71,0.00,,---,0.00,775.00,VWS V14.01,2013-09-27 16:29:00,
2013-09-27 12:30:00,72.2,62.3,30.08,NE,50,0.0,0.0,71,0.00,,---,0.00,789.00,VWS V14.01,2013-09-27 16:30:00,
2013-09-27 12:34:00,71.9,61.2,30.08,NE,50,0.0,0.0,69,0.00,,---,0.00,786.00,VWS V14.01,2013-09-27 16:34:00,
2013-09-27 12:39:00,72.2,61.1,30.08,NE,50,0.0,0.0,68,0.00,,---,0.00,788.00,VWS V14.01,2013-09-27 16:39:00,
2013-09-27 12:40:00,72.5,60.5,30.08,NW,319,0.0,0.0,66,0.00,,---,0.00,795.00,VWS V14.01,2013-09-27 16:40:00,
2013-09-27 12:44:00,72.4,60.8,30.08,NE,50,0.0,0.0,67,0.00,,---,0.00,791.00,VWS V14.01,2013-09-27 16:44:00,
2013-09-27 12:49:00,72.5,60.5,30.07,NW,319,0.0,0.0,66,0.00,,---,0.00,796.00,VWS V14.01,2013-09-27 16:49:00,
2013-09-27 12:50:00,72.8,60.8,30.07,NNW,329,0.0,0.0,66,0.00,,---,0.00,816.00,VWS V14.01,2013-09-27 16:50:00,
2013-09-27 12:54:00,72.7,62.0,30.07,West,269,0.0,0.0,69,0.00,,---,0.00,803.00,VWS V14.01,2013-09-27 16:54:00,
2013-09-27 12:59:00,72.8,60.8,30.07,NNW,329,0.0,0.0,66,0.00,,---,0.00,817.00,VWS V14.01,2013-09-27 16:59:00,
2013-09-27 13:00:00,73.1,61.9,30.07,WNW,300,0.0,0.0,68,0.00,,---,0.00,823.00,VWS V14.01,2013-09-27 17:00:00,
2013-09-27 13:04:00,72.9,60.0,30.07,NW,304,0.0,0.0,64,0.00,,---,0.00,821.00,VWS V14.01,2013-09-27 17:04:00,
2013-09-27 13:09:00,73.3,62.5,30.07,NNW,327,0.0,0.0,69,0.00,,---,0.00,828.00,VWS V14.01,2013-09-27 17:09:00,
2013-09-27 13:10:00,74.4,61.9,30.06,NW,325,0.0,0.0,65,0.00,,---,0.00,833.00,VWS V14.01,2013-09-27 17:10:00,
2013-09-27 13:14:00,74.0,63.6,30.07,NNW,331,0.0,0.0,70,0.00,,---,0.00,831.00,VWS V14.01,2013-09-27 17:14:00,
2013-09-27 13:20:00,74.7,60.8,30.06,NNW,340,0.0,0.0,62,0.00,,---,0.00,830.00,VWS V14.01,2013-09-27 17:20:00,
2013-09-27 13:25:00,74.8,61.4,30.06,NW,316,0.0,0.0,63,0.00,,---,0.00,849.00,VWS V14.01,2013-09-27 17:25:00,
2013-09-27 13:28:00,74.7,60.8,30.06,NW,321,0.0,0.0,62,0.00,,---,0.00,870.00,VWS V14.01,2013-09-27 17:28:00,
2013-09-27 13:30:00,75.2,60.8,30.06,ENE,67,0.0,0.0,61,0.00,,---,0.00,889.00,VWS V14.01,2013-09-27 17:30:00,
2013-09-27 13:33:00,74.9,61.0,30.06,ESE,120,0.0,0.0,62,0.00,,---,0.00,860.00,VWS V14.01,2013-09-27 17:33:00,
2013-09-27 13:38:00,75.2,60.8,30.06,ENE,67,0.0,0.0,61,0.00,,---,0.00,889.00,VWS V14.01,2013-09-27 17:38:00,
2013-09-27 13:40:00,75.0,61.6,30.05,ENE,66,0.0,0.0,63,0.00,,---,0.00,870.00,VWS V14.01,2013-09-27 17:40:00,
2013-09-27 13:43:00,75.3,60.5,30.05,ENE,66,0.0,0.0,60,0.00,,---,0.00,102.00,VWS V14.01,2013-09-27 17:43:00,
2013-09-27 13:48:00,75.0,61.6,30.05,ENE,66,0.0,0.0,63,0.00,,---,0.00,863.00,VWS V14.01,2013-09-27 17:48:00,
2013-09-27 13:50:00,75.1,57.8,30.05,SW,234,0.0,0.0,55,0.00,,---,0.00,865.00,VWS V14.01,2013-09-27 17:50:00,
2013-09-27 13:53:00,75.0,61.1,30.05,SW,236,0.0,0.0,62,0.00,,---,0.00,844.00,VWS V14.01,2013-09-27 17:53:00,
2013-09-27 13:58:00,75.1,57.8,30.05,SW,235,0.0,0.0,55,0.00,,---,0.00,874.00,VWS V14.01,2013-09-27 17:58:00,
2013-09-27 14:00:00,76.2,60.8,30.05,NE,56,0.0,0.0,59,0.00,,---,0.00,870.00,VWS V14.01,2013-09-27 18:00:00,
2013-09-27 14:03:00,75.6,61.7,30.05,NE,56,0.0,0.0,62,0.00,,---,0.00,907.00,VWS V14.01,2013-09-27 18:03:00,
2013-09-27 14:08:00,76.3,60.5,30.05,NE,56,0.0,0.0,58,0.00,,---,0.00,868.00,VWS V14.01,2013-09-27 18:08:00,
2013-09-27 14:10:00,77.2,58.8,30.04,NE,56,0.0,0.0,53,0.00,,---,0.00,838.00,VWS V14.01,2013-09-27 18:10:00,
2013-09-27 14:13:00,76.8,57.3,30.04,NE,56,0.0,0.0,51,0.00,,---,0.00,837.00,VWS V14.01,2013-09-27 18:13:00,
2013-09-27 14:19:00,77.2,58.8,30.04,NE,56,0.0,0.0,53,0.00,,---,0.00,840.00,VWS V14.01,2013-09-27 18:19:00,
2013-09-27 14:20:00,77.4,60.5,30.04,NNE,16,0.0,0.0,56,0.00,,---,0.00,849.00,VWS V14.01,2013-09-27 18:20:00,
2013-09-27 14:24:00,77.1,61.2,30.04,NNE,15,0.0,0.0,58,0.00,,---,0.00,846.00,VWS V14.01,2013-09-27 18:24:00,
2013-09-27 14:29:00,77.5,61.1,30.04,NE,56,0.0,0.0,57,0.00,,---,0.00,847.00,VWS V14.01,2013-09-27 18:29:00,
2013-09-27 14:30:00,77.7,60.8,30.04,NNE,24,0.0,0.0,56,0.00,,---,0.00,875.00,VWS V14.01,2013-09-27 18:30:00,
2013-09-27 14:34:00,77.5,60.1,30.04,NNE,16,0.0,0.0,55,0.00,,---,0.00,877.00,VWS V14.01,2013-09-27 18:34:00,
2013-09-27 14:39:00,77.7,59.2,30.03,NE,55,0.0,0.0,53,0.00,,---,0.00,884.00,VWS V14.01,2013-09-27 18:39:00,
2013-09-27 14:40:00,78.0,59.5,30.03,NE,55,0.0,0.0,53,0.00,,---,0.00,134.00,VWS V14.01,2013-09-27 18:40:00,
2013-09-27 14:44:00,78.1,59.6,30.03,NE,55,0.0,0.0,53,0.00,,---,0.00,181.00,VWS V14.01,2013-09-27 18:44:00,
2013-09-27 14:49:00,77.8,59.3,30.03,NE,55,0.0,0.0,53,0.00,,---,0.00,134.00,VWS V14.01,2013-09-27 18:49:00,
2013-09-27 14:50:00,77.4,59.5,30.03,NE,50,0.0,0.0,54,0.00,,---,0.00,802.00,VWS V14.01,2013-09-27 18:50:00,
2013-09-27 14:54:00,77.3,59.9,30.03,NE,49,0.0,0.0,55,0.00,,---,0.00,856.00,VWS V14.01,2013-09-27 18:54:00,
2013-09-27 14:59:00,77.5,59.6,30.03,NE,50,0.0,0.0,54,0.00,,---,0.00,802.00,VWS V14.01,2013-09-27 18:59:00,
2013-09-27 15:00:00,77.2,59.3,30.03,WNW,293,0.0,0.0,54,0.00,,---,0.00,788.00,VWS V14.01,2013-09-27 19:00:00,
2013-09-27 15:05:00,77.3,58.3,30.02,WNW,288,0.0,0.0,52,0.00,,---,0.00,793.00,VWS V14.01,2013-09-27 19:05:00,
2013-09-27 15:10:00,77.2,61.3,30.03,WNW,294,0.0,0.0,58,0.00,,---,0.00,788.00,VWS V14.01,2013-09-27 19:10:00,
2013-09-27 15:15:00,77.6,59.7,30.02,NNW,337,0.0,0.0,54,0.00,,---,0.00,793.00,VWS V14.01,2013-09-27 19:15:00,
2013-09-27 15:20:00,78.0,59.5,30.02,NE,50,0.0,0.0,53,0.00,,---,0.00,768.00,VWS V14.01,2013-09-27 19:20:00,
2013-09-27 15:25:00,78.4,60.9,30.02,NE,49,0.0,0.0,55,0.00,,---,0.00,744.00,VWS V14.01,2013-09-27 19:25:00,
2013-09-27 15:30:00,78.6,61.6,30.02,NE,50,0.0,0.0,56,0.00,,---,0.00,754.00,VWS V14.01,2013-09-27 19:30:00,
2013-09-27 15:35:00,78.3,58.7,30.02,North,5,0.0,0.0,51,0.00,,---,0.00,410.00,VWS V14.01,2013-09-27 19:35:00,
2013-09-27 15:40:00,77.8,57.7,30.02,North,5,0.0,0.0,50,0.00,,---,0.00,156.00,VWS V14.01,2013-09-27 19:40:00,
2013-09-27 15:45:00,77.7,57.6,30.02,NNW,330,0.0,0.0,50,0.00,,---,0.00,729.00,VWS V14.01,2013-09-27 19:45:00,
2013-09-27 15:50:00,77.9,61.0,30.02,NE,49,0.0,0.0,56,0.00,,---,0.00,707.00,VWS V14.01,2013-09-27 19:50:00,
2013-09-27 15:56:00,78.4,60.9,30.02,NE,49,0.0,0.0,55,0.00,,---,0.00,684.00,VWS V14.01,2013-09-27 19:56:00,
2013-09-27 16:00:00,79.0,59.3,30.02,East,94,0.0,0.0,51,0.00,,---,0.00,635.00,VWS V14.01,2013-09-27 20:00:00,
2013-09-27 16:01:00,78.6,57.9,30.02,NE,49,0.0,0.0,49,0.00,,---,0.00,670.00,VWS V14.01,2013-09-27 20:01:00,
2013-09-27 16:06:00,78.9,59.8,30.02,NE,49,0.0,0.0,52,0.00,,---,0.00,649.00,VWS V14.01,2013-09-27 20:06:00,
2013-09-27 16:10:00,79.3,59.6,30.02,NE,49,0.0,0.0,51,0.00,,---,0.00,621.00,VWS V14.01,2013-09-27 20:10:00,
2013-09-27 16:11:00,79.0,58.2,30.02,East,94,0.0,0.0,49,0.00,,---,0.00,635.00,VWS V14.01,2013-09-27 20:11:00,
2013-09-27 16:16:00,79.3,58.5,30.02,NE,49,0.0,0.0,49,0.00,,---,0.00,624.00,VWS V14.01,2013-09-27 20:16:00,
2013-09-27 16:20:00,79.2,60.1,30.02,NE,39,0.0,0.0,52,0.00,,---,0.00,591.00,VWS V14.01,2013-09-27 20:20:00,
2013-09-27 16:21:00,79.3,57.3,30.02,NE,49,0.0,0.0,47,0.00,,---,0.00,608.00,VWS V14.01,2013-09-27 20:21:00,
2013-09-27 16:26:00,79.2,57.8,30.02,NE,39,0.0,0.0,48,0.00,,---,0.00,594.00,VWS V14.01,2013-09-27 20:26:00,
2013-09-27 16:30:00,78.8,59.2,30.01,WSW,252,0.0,0.0,51,0.00,,---,0.00,548.00,VWS V14.01,2013-09-27 20:30:00,
2013-09-27 16:31:00,79.0,58.2,30.01,North,360,0.0,0.0,49,0.00,,---,0.00,580.00,VWS V14.01,2013-09-27 20:31:00,
2013-09-27 16:37:00,78.8,60.2,30.01,WSW,252,0.0,0.0,53,0.00,,---,0.00,557.00,VWS V14.01,2013-09-27 20:37:00,
2013-09-27 16:40:00,79.4,58.0,30.01,ENE,74,0.0,0.0,48,0.00,,---,0.00,527.00,VWS V14.01,2013-09-27 20:40:00,
2013-09-27 16:42:00,79.0,61.0,30.01,ENE,74,0.0,0.0,54,0.00,,---,0.00,541.00,VWS V14.01,2013-09-27 20:42:00,
2013-09-27 16:47:00,79.4,59.7,30.01,ENE,74,0.0,0.0,51,0.00,,---,0.00,533.00,VWS V14.01,2013-09-27 20:47:00,
2013-09-27 16:50:00,79.9,61.8,30.01,ENE,70,0.0,0.0,54,0.00,,---,0.00,492.00,VWS V14.01,2013-09-27 20:50:00,
2013-09-27 16:52:00,79.6,62.0,30.01,ENE,70,0.0,0.0,55,0.00,,---,0.00,513.00,VWS V14.01,2013-09-27 20:52:00,
2013-09-27 16:57:00,79.9,61.8,30.01,ENE,70,0.0,0.0,54,0.00,,---,0.00,499.00,VWS V14.01,2013-09-27 20:57:00,
2013-09-27 17:00:00,80.2,59.9,30.01,ENE,70,0.0,0.0,50,0.00,,---,0.00,469.00,VWS V14.01,2013-09-27 21:00:00,
2013-09-27 17:02:00,80.1,60.9,30.01,ENE,70,0.0,0.0,52,0.00,,---,0.00,483.00,VWS V14.01,2013-09-27 21:02:00,
2013-09-27 17:07:00,80.2,59.9,30.01,ENE,70,0.0,0.0,50,0.00,,---,0.00,471.00,VWS V14.01,2013-09-27 21:07:00,
2013-09-27 17:10:00,80.0,59.2,30.01,ENE,70,0.0,0.0,49,0.00,,---,0.00,338.00,VWS V14.01,2013-09-27 21:10:00,
2013-09-27 17:12:00,80.2,58.8,30.01,ENE,70,0.0,0.0,48,0.00,,---,0.00,459.00,VWS V14.01,2013-09-27 21:12:00,
2013-09-27 17:18:00,80.0,59.1,30.01,ENE,70,0.0,0.0,49,0.00,,---,0.00,338.00,VWS V14.01,2013-09-27 21:18:00,
2013-09-27 17:20:00,79.5,59.8,30.01,ENE,70,0.0,0.0,51,0.00,,---,0.00,450.00,VWS V14.01,2013-09-27 21:20:00,
2013-09-27 17:23:00,79.7,60.0,30.01,ENE,70,0.0,0.0,51,0.00,,---,0.00,301.00,VWS V14.01,2013-09-27 21:23:00,
2013-09-27 17:28:00,79.5,59.8,30.01,ENE,70,0.0,0.0,51,0.00,,---,0.00,450.00,VWS V14.01,2013-09-27 21:28:00,
2013-09-27 17:30:00,79.3,61.2,30.01,ENE,69,0.0,0.0,54,0.00,,---,0.00,387.00,VWS V14.01,2013-09-27 21:30:00,
2013-09-27 17:33:00,79.4,60.3,30.01,ENE,70,0.0,0.0,52,0.00,,---,0.00,420.00,VWS V14.01,2013-09-27 21:33:00,
2013-09-27 17:38:00,79.3,61.2,30.01,ENE,69,0.0,0.0,54,0.00,,---,0.00,387.00,VWS V14.01,2013-09-27 21:38:00,
2013-09-27 17:40:00,80.0,61.9,30.01,ENE,69,0.0,0.0,54,0.00,,---,0.00,343.00,VWS V14.01,2013-09-27 21:40:00,
2013-09-27 17:43:00,79.6,61.0,30.01,ENE,69,0.0,0.0,53,0.00,,---,0.00,359.00,VWS V14.01,2013-09-27 21:43:00,
2013-09-27 17:48:00,80.0,62.9,30.01,ENE,69,0.0,0.0,56,0.00,,---,0.00,339.00,VWS V14.01,2013-09-27 21:48:00,
2013-09-27 17:50:00,79.9,61.8,30.01,ENE,69,0.0,0.0,54,0.00,,---,0.00,297.00,VWS V14.01,2013-09-27 21:50:00,
2013-09-27 17:53:00,80.0,60.8,30.01,ENE,69,0.0,0.0,52,0.00,,---,0.00,318.00,VWS V14.01,2013-09-27 21:53:00,
2013-09-27 17:58:00,79.9,61.3,30.01,ENE,69,0.0,0.0,53,0.00,,---,0.00,292.00,VWS V14.01,2013-09-27 21:58:00,
2013-09-27 18:00:00,79.9,59.0,30.01,ENE,69,0.0,0.0,49,0.00,,---,0.00,246.00,VWS V14.01,2013-09-27 22:00:00,
2013-09-27 18:04:00,79.8,58.4,30.01,ENE,69,0.0,0.0,48,0.00,,---,0.00,267.00,VWS V14.01,2013-09-27 22:04:00,
2013-09-27 18:09:00,79.8,59.0,30.01,ENE,69,0.0,0.0,49,0.00,,---,0.00,239.00,VWS V14.01,2013-09-27 22:09:00,
2013-09-27 18:10:00,79.6,59.3,30.01,ENE,69,0.0,0.0,50,0.00,,---,0.00,181.00,VWS V14.01,2013-09-27 22:10:00,
2013-09-27 18:14:00,79.6,60.4,30.01,ENE,69,0.0,0.0,52,0.00,,---,0.00,206.00,VWS V14.01,2013-09-27 22:14:00,
2013-09-27 18:19:00,79.6,61.5,30.01,ENE,69,0.0,0.0,54,0.00,,---,0.00,176.00,VWS V14.01,2013-09-27 22:19:00,
2013-09-27 18:20:00,79.5,60.9,30.01,ENE,69,0.0,0.0,53,0.00,,---,0.00,113.00,VWS V14.01,2013-09-27 22:20:00,
2013-09-27 18:24:00,79.6,60.4,30.01,ENE,69,0.0,0.0,52,0.00,,---,0.00,141.00,VWS V14.01,2013-09-27 22:24:00,
2013-09-27 18:29:00,79.4,61.8,30.01,ENE,69,0.0,0.0,55,0.00,,---,0.00,86.00,VWS V14.01,2013-09-27 22:29:00,
2013-09-27 18:30:00,78.5,63.0,30.01,ENE,69,0.0,0.0,59,0.00,,---,0.00,72.00,VWS V14.01,2013-09-27 22:30:00,
2013-09-27 18:34:00,78.9,62.4,30.01,ENE,69,0.0,0.0,57,0.00,,---,0.00,79.00,VWS V14.01,2013-09-27 22:34:00,
2013-09-27 18:40:00,78.3,62.3,30.01,ENE,69,0.0,0.0,58,0.00,,---,0.00,84.00,VWS V14.01,2013-09-27 22:40:00,
2013-09-27 18:45:00,77.8,62.8,30.01,ENE,69,0.0,0.0,60,0.00,,---,0.00,72.00,VWS V14.01,2013-09-27 22:45:00,
2013-09-27 18:50:00,77.3,62.3,30.01,ENE,69,0.0,0.0,60,0.00,,---,0.00,54.00,VWS V14.01,2013-09-27 22:50:00,
2013-09-27 18:55:00,76.7,61.3,30.01,ENE,69,0.0,0.0,59,0.00,,---,0.00,37.00,VWS V14.01,2013-09-27 22:55:00,
2013-09-27 19:00:00,76.0,60.7,30.01,ENE,69,0.0,0.0,59,0.00,,---,0.00,21.00,VWS V14.01,2013-09-27 23:00:00,
2013-09-27 19:05:00,75.3,60.0,30.02,ENE,69,0.0,0.0,59,0.00,,---,0.00,16.00,VWS V14.01,2013-09-27 23:05:00,
2013-09-27 19:10:00,74.4,58.7,30.02,ENE,69,0.0,0.0,58,0.00,,---,0.00,9.00,VWS V14.01,2013-09-27 23:10:00,
2013-09-27 19:16:00,73.4,57.7,30.02,ENE,69,0.0,0.0,58,0.00,,---,0.00,7.00,VWS V14.01,2013-09-27 23:16:00,
2013-09-27 19:20:00,71.1,57.4,30.02,ENE,69,0.0,0.0,62,0.00,,---,0.00,0.00,VWS V14.01,2013-09-27 23:20:00,
2013-09-27 19:21:00,72.3,57.7,30.02,ENE,69,0.0,0.0,60,0.00,,---,0.00,5.00,VWS V14.01,2013-09-27 23:21:00,
2013-09-27 19:26:00,71.4,57.7,30.02,ENE,69,0.0,0.0,62,0.00,,---,0.00,0.00,VWS V14.01,2013-09-27 23:26:00,
2013-09-27 19:30:00,69.5,56.8,30.02,ENE,69,0.0,0.0,64,0.00,,---,0.00,0.00,VWS V14.01,2013-09-27 23:30:00,
2013-09-27 19:31:00,70.5,56.9,30.02,ENE,69,0.0,0.0,62,0.00,,---,0.00,0.00,VWS V14.01,2013-09-27 23:31:00,
2013-09-27 19:36:00,69.7,57.0,30.02,ENE,69,0.0,0.0,64,0.00,,---,0.00,0.00,VWS V14.01,2013-09-27 23:36:00,
2013-09-27 19:40:00,68.3,56.5,30.02,ENE,69,0.0,0.0,66,0.00,,---,0.00,0.00,VWS V14.01,2013-09-27 23:40:00,
2013-09-27 19:41:00,69.1,56.8,30.02,ENE,69,0.0,0.0,65,0.00,,---,0.00,0.00,VWS V14.01,2013-09-27 23:41:00,
2013-09-27 19:46:00,68.5,56.7,30.02,ENE,69,0.0,0.0,66,0.00,,---,0.00,0.00,VWS V14.01,2013-09-27 23:46:00,
2013-09-27 19:50:00,67.3,56.4,30.02,ENE,69,0.0,0.0,68,0.00,,---,0.00,0.00,VWS V14.01,2013-09-27 23:50:00,
2013-09-27 19:51:00,68.0,56.7,30.02,ENE,69,0.0,0.0,67,0.00,,---,0.00,0.00,VWS V14.01,2013-09-27 23:51:00,
2013-09-27 19:56:00,67.5,56.6,30.02,ENE,69,0.0,0.0,68,0.00,,---,0.00,0.00,VWS V14.01,2013-09-27 23:56:00,
2013-09-27 20:00:00,66.3,56.2,30.02,ENE,69,0.0,0.0,70,0.00,,---,0.00,0.00,VWS V14.01,2013-09-28 00:00:00,
2013-09-27 20:01:00,67.0,56.9,30.02,ENE,69,0.0,0.0,70,0.00,,---,0.00,0.00,VWS V14.01,2013-09-28 00:01:00,
2013-09-27 20:06:00,66.4,56.3,30.02,ENE,69,0.0,0.0,70,0.00,,---,0.00,0.00,VWS V14.01,2013-09-28 00:06:00,
2013-09-27 20:10:00,65.5,56.2,30.02,ENE,69,0.0,0.0,72,0.00,,---,0.00,0.00,VWS V14.01,2013-09-28 00:10:00,
2013-09-27 20:11:00,66.0,56.3,30.02,ENE,69,0.0,0.0,71,0.00,,---,0.00,0.00,VWS V14.01,2013-09-28 00:11:00,
2013-09-27 20:16:00,65.6,56.3,30.02,ENE,69,0.0,0.0,72,0.00,,---,0.00,0.00,VWS V14.01,2013-09-28 00:16:00,
2013-09-27 20:20:00,64.8,56.3,30.02,ENE,69,0.0,0.0,74,0.00,,---,0.00,0.00,VWS V14.01,2013-09-28 00:20:00,
2013-09-27 20:21:00,65.2,56.3,30.02,ENE,69,0.0,0.0,73,0.00,,---,0.00,0.00,VWS V14.01,2013-09-28 00:21:00,
2013-09-27 20:26:00,64.9,56.4,30.02,ENE,69,0.0,0.0,74,0.00,,---,0.00,0.00,VWS V14.01,2013-09-28 00:26:00,
2013-09-27 20:30:00,64.2,55.8,30.02,ENE,69,0.0,0.0,74,0.00,,---,0.00,0.00,VWS V14.01,2013-09-28 00:30:00,
2013-09-27 20:31:00,64.6,56.1,30.02,ENE,69,0.0,0.0,74,0.00,,---,0.00,0.00,VWS V14.01,2013-09-28 00:31:00,
2013-09-27 20:36:00,64.3,56.2,30.02,ENE,69,0.0,0.0,75,0.00,,---,0.00,0.00,VWS V14.01,2013-09-28 00:36:00,
2013-09-27 20:40:00,63.7,56.0,30.02,ENE,69,0.0,0.0,76,0.00,,---,0.00,0.00,VWS V14.01,2013-09-28 00:40:00,
2013-09-27 20:41:00,64.0,55.9,30.02,ENE,69,0.0,0.0,75,0.00,,---,0.00,0.00,VWS V14.01,2013-09-28 00:41:00,
2013-09-27 20:46:00,63.8,56.1,30.02,ENE,69,0.0,0.0,76,0.00,,---,0.00,0.00,VWS V14.01,2013-09-28 00:46:00,
2013-09-27 20:50:00,63.2,55.9,30.03,ENE,69,0.0,0.0,77,0.00,,---,0.00,0.00,VWS V14.01,2013-09-28 00:50:00,
2013-09-27 20:51:00,63.5,55.8,30.02,ENE,69,0.0,0.0,76,0.00,,---,0.00,0.00,VWS V14.01,2013-09-28 00:51:00,
2013-09-27 20:56:00,63.3,56.0,30.03,ENE,69,0.0,0.0,77,0.00,,---,0.00,0.00,VWS V14.01,2013-09-28 00:56:00,
2013-09-27 21:00:00,62.8,55.8,30.04,ENE,69,0.0,0.0,78,0.00,,---,0.00,0.00,VWS V14.01,2013-09-28 01:00:00,
2013-09-27 21:01:00,63.1,55.8,30.03,ENE,69,0.0,0.0,77,0.00,,---,0.00,0.00,VWS V14.01,2013-09-28 01:01:00,
2013-09-27 21:06:00,62.8,55.8,30.04,ENE,69,0.0,0.0,78,0.00,,---,0.00,0.00,VWS V14.01,2013-09-28 01:06:00,
2013-09-27 21:10:00,62.2,55.6,30.05,ENE,69,0.0,0.0,79,0.00,,---,0.00,0.00,VWS V14.01,2013-09-28 01:10:00,
2013-09-27 21:11:00,62.6,56.0,30.04,ENE,69,0.0,0.0,79,0.00,,---,0.00,0.00,VWS V14.01,2013-09-28 01:11:00,
2013-09-27 21:17:00,62.2,55.6,30.04,ENE,69,0.0,0.0,79,0.00,,---,0.00,0.00,VWS V14.01,2013-09-28 01:17:00,
2013-09-27 21:20:00,61.5,55.6,30.05,ENE,69,0.0,0.0,81,0.00,,---,0.00,0.00,VWS V14.01,2013-09-28 01:20:00,
2013-09-27 21:22:00,61.9,55.7,30.04,ENE,69,0.0,0.0,80,0.00,,---,0.00,0.00,VWS V14.01,2013-09-28 01:22:00,
2013-09-27 21:27:00,61.5,55.6,30.05,ENE,69,0.0,0.0,81,0.00,,---,0.00,0.00,VWS V14.01,2013-09-28 01:27:00,
2013-09-27 21:30:00,61.1,56.2,30.05,ENE,69,0.0,0.0,84,0.00,,---,0.00,0.00,VWS V14.01,2013-09-28 01:30:00,
2013-09-27 21:32:00,61.3,56.4,30.04,ENE,69,0.0,0.0,84,0.00,,---,0.00,0.00,VWS V14.01,2013-09-28 01:32:00,
2013-09-27 21:37:00,61.1,56.2,30.05,ENE,69,0.0,0.0,84,0.00,,---,0.00,0.00,VWS V14.01,2013-09-28 01:37:00,
2013-09-27 21:40:00,60.8,56.9,30.05,ENE,69,0.0,0.0,87,0.00,,---,0.00,0.00,VWS V14.01,2013-09-28 01:40:00,
2013-09-27 21:42:00,60.9,56.4,30.05,ENE,69,0.0,0.0,85,0.00,,---,0.00,0.00,VWS V14.01,2013-09-28 01:42:00,
2013-09-27 21:47:00,60.8,56.6,30.05,ENE,69,0.0,0.0,86,0.00,,---,0.00,0.00,VWS V14.01,2013-09-28 01:47:00,
2013-09-27 21:50:00,60.7,56.5,30.05,ENE,69,0.0,0.0,86,0.00,,---,0.00,0.00,VWS V14.01,2013-09-28 01:50:00,
2013-09-27 21:52:00,60.8,56.9,30.05,ENE,69,0.0,0.0,87,0.00,,---,0.00,0.00,VWS V14.01,2013-09-28 01:52:00,
2013-09-27 21:57:00,60.7,56.5,30.05,ENE,69,0.0,0.0,86,0.00,,---,0.00,0.00,VWS V14.01,2013-09-28 01:57:00,
2013-09-27 22:00:00,60.8,56.9,30.06,ENE,69,0.0,0.0,87,0.00,,---,0.00,0.00,VWS V14.01,2013-09-28 02:00:00,
2013-09-27 22:02:00,60.7,56.8,30.06,ENE,69,0.0,0.0,87,0.00,,---,0.00,0.00,VWS V14.01,2013-09-28 02:02:00,
2013-09-27 22:07:00,60.8,56.9,30.06,ENE,69,0.0,0.0,87,0.00,,---,0.00,0.00,VWS V14.01,2013-09-28 02:07:00,
2013-09-27 22:10:00,60.7,56.5,30.07,ENE,69,0.0,0.0,86,0.00,,---,0.00,0.00,VWS V14.01,2013-09-28 02:10:00,
2013-09-27 22:12:00,60.9,57.0,30.06,ENE,69,0.0,0.0,87,0.00,,---,0.00,0.00,VWS V14.01,2013-09-28 02:12:00,
2013-09-27 22:17:00,60.7,56.5,30.07,ENE,69,0.0,0.0,86,0.00,,---,0.00,0.00,VWS V14.01,2013-09-28 02:17:00,
2013-09-27 22:20:00,60.2,56.0,30.06,ENE,69,0.0,0.0,86,0.00,,---,0.00,0.00,VWS V14.01,2013-09-28 02:20:00,
2013-09-27 22:22:00,60.5,56.3,30.06,ENE,69,0.0,0.0,86,0.00,,---,0.00,0.00,VWS V14.01,2013-09-28 02:22:00,
2013-09-27 22:28:00,60.2,56.0,30.06,ENE,69,0.0,0.0,86,0.00,,---,0.00,0.00,VWS V14.01,2013-09-28 02:28:00,
2013-09-27 22:30:00,59.9,55.7,30.07,ENE,69,0.0,0.0,86,0.00,,---,0.00,0.00,VWS V14.01,2013-09-28 02:30:00,
2013-09-27 22:33:00,60.0,55.8,30.07,ENE,69,0.0,0.0,86,0.00,,---,0.00,0.00,VWS V14.01,2013-09-28 02:33:00,
2013-09-27 22:38:00,59.9,55.7,30.07,ENE,69,0.0,0.0,86,0.00,,---,0.00,0.00,VWS V14.01,2013-09-28 02:38:00,
2013-09-27 22:40:00,59.5,55.6,30.07,ENE,69,0.0,0.0,87,0.00,,---,0.00,0.00,VWS V14.01,2013-09-28 02:40:00,
2013-09-27 22:43:00,59.6,55.7,30.07,ENE,69,0.0,0.0,87,0.00,,---,0.00,0.00,VWS V14.01,2013-09-28 02:43:00,
2013-09-27 22:48:00,59.5,55.6,30.07,ENE,69,0.0,0.0,87,0.00,,---,0.00,0.00,VWS V14.01,2013-09-28 02:48:00,
2013-09-27 22:50:00,59.2,55.3,30.07,ENE,69,0.0,0.0,87,0.00,,---,0.00,0.00,VWS V14.01,2013-09-28 02:50:00,
2013-09-27 22:53:00,59.3,55.4,30.07,ENE,69,0.0,0.0,87,0.00,,---,0.00,0.00,VWS V14.01,2013-09-28 02:53:00,
2013-09-27 22:58:00,59.1,55.2,30.07,ENE,69,0.0,0.0,87,0.00,,---,0.00,0.00,VWS V14.01,2013-09-28 02:58:00,
2013-09-27 23:00:00,58.8,55.6,30.07,ENE,69,0.0,0.0,89,0.00,,---,0.00,0.00,VWS V14.01,2013-09-28 03:00:00,
2013-09-27 23:03:00,58.9,55.0,30.07,ENE,69,0.0,0.0,87,0.00,,---,0.00,0.00,VWS V14.01,2013-09-28 03:03:00,
2013-09-27 23:08:00,58.8,55.6,30.07,ENE,69,0.0,0.0,89,0.00,,---,0.00,0.00,VWS V14.01,2013-09-28 03:08:00,
2013-09-27 23:10:00,58.9,55.7,30.07,ENE,69,0.0,0.0,89,0.00,,---,0.00,0.00,VWS V14.01,2013-09-28 03:10:00,
2013-09-27 23:13:00,58.9,55.7,30.07,ENE,69,0.0,0.0,89,0.00,,---,0.00,0.00,VWS V14.01,2013-09-28 03:13:00,
2013-09-27 23:19:00,58.9,55.7,30.07,ENE,69,0.0,0.0,89,0.00,,---,0.00,0.00,VWS V14.01,2013-09-28 03:19:00,
2013-09-27 23:20:00,59.0,55.8,30.07,ENE,69,0.0,0.0,89,0.00,,---,0.00,0.00,VWS V14.01,2013-09-28 03:20:00,
2013-09-27 23:24:00,59.0,55.8,30.07,ENE,69,0.0,0.0,89,0.00,,---,0.00,0.00,VWS V14.01,2013-09-28 03:24:00,
2013-09-27 23:29:00,59.1,55.5,30.07,ENE,69,0.0,0.0,88,0.00,,---,0.00,0.00,VWS V14.01,2013-09-28 03:29:00,
2013-09-27 23:30:00,58.9,55.7,30.07,ENE,69,0.0,0.0,89,0.00,,---,0.00,0.00,VWS V14.01,2013-09-28 03:30:00,
2013-09-27 23:34:00,59.0,55.8,30.07,ENE,69,0.0,0.0,89,0.00,,---,0.00,0.00,VWS V14.01,2013-09-28 03:34:00,
2013-09-27 23:39:00,58.9,55.4,30.07,ENE,69,0.0,0.0,88,0.00,,---,0.00,0.00,VWS V14.01,2013-09-28 03:39:00,
2013-09-27 23:40:00,58.6,55.4,30.08,ENE,69,0.0,0.0,89,0.00,,---,0.00,0.00,VWS V14.01,2013-09-28 03:40:00,
2013-09-27 23:44:00,58.7,55.5,30.08,ENE,69,0.0,0.0,89,0.00,,---,0.00,0.00,VWS V14.01,2013-09-28 03:44:00,
2013-09-27 23:49:00,58.6,55.7,30.07,ENE,69,0.0,0.0,90,0.00,,---,0.00,0.00,VWS V14.01,2013-09-28 03:49:00,
2013-09-27 23:50:00,58.5,55.9,30.07,ENE,69,0.0,0.0,91,0.00,,---,0.00,0.00,VWS V14.01,2013-09-28 03:50:00,
2013-09-27 23:54:00,58.5,55.6,30.07,ENE,69,0.0,0.0,90,0.00,,---,0.00,0.00,VWS V14.01,2013-09-28 03:54:00,
2013-09-27 23:59:00,58.5,55.9,30.07,ENE,69,0.0,0.0,91,0.00,,---,0.00,0.00,VWS V14.01,2013-09-28 03:59:00,